Weather History for Kenosha, WI

Change the Weather History Date:

Saturday, May 25, 2013

  Actual Average Record
Temperature  
Mean Temperature 48 °F -  
Max Temperature 57 °F 62 °F 88 °F (1950)
Min Temperature 39 °F 46 °F 36 °F (1992)
Degree Days  
Heating Degree Days 17    
Moisture  
Dew Point 36 °F    
Average Humidity 63    
Maximum Humidity 83    
Minimum Humidity 35    
Precipitation  
Precipitation 0.00 in - - ()
Sea Level Pressure  
Sea Level Pressure 30.37 in    
Wind  
Wind Speed 3 mph (ENE)    
Max Wind Speed 9 mph    
Max Gust Speed -    
Visibility 10 miles    
Events      
Averages and records for this station are not official NWS values.
T = Trace of Precipitation, MM = Missing Value Source: NWS Daily Summary

Daily Weather History Graph

Daily Weather History Graph

Search for Another Location

Airport:

Trip Planner

Search our weather history database for the weather conditions in past years. The results will help you decide how hot, cold, wet, or windy it might be!

Date:

Astronomy

May. 25, 2013 Rise Set
Actual Time 5:20 AM CDT 8:17 PM CDT
Civil Twilight 4:47 AM CDT 8:50 PM CDT
Nautical Twilight 4:04 AM CDT 9:33 PM CDT
Astronomical Twilight 3:15 AM CDT 10:23 PM CDT
Moon 9:04 PM CDT (5/25) 5:47 AM CDT (5/25)
Length of Visible Light 16h 03m
Length of Day
14h 56m
Full, 100% of the Moon is Illuminated
May 25
Full
May 31
Last Quarter
Jun 8
New
Jun 16
First Quarter
Jun 23
Full

Hourly Weather History & Observations

Time (CDT) Temp. Windchill Dew Point Humidity Pressure Visibility Wind Dir Wind Speed Gust Speed Precip Events Conditions
12:53 AM 41.0 °F - 34.0 °F 76% 30.37 in 10.0 mi Calm Calm - N/A   Clear
1:53 AM 39.9 °F - 34.0 °F 79% 30.35 in 10.0 mi Calm Calm - N/A   Clear
2:53 AM 39.9 °F - 35.1 °F 83% 30.35 in 10.0 mi Calm Calm - N/A   Clear
3:53 AM 42.1 °F 40.2 °F 36.0 °F 79% 30.38 in 10.0 mi NNW 3.5 mph - N/A   Clear
4:53 AM 42.1 °F 38.4 °F 36.0 °F 79% 30.37 in 10.0 mi NE 5.8 mph - N/A   Clear
5:53 AM 44.1 °F - 37.9 °F 79% 30.39 in 10.0 mi Calm Calm - N/A   Scattered Clouds
6:53 AM 46.9 °F - 37.9 °F 71% 30.41 in 10.0 mi Calm Calm - N/A   Overcast
7:53 AM 48.9 °F - 37.9 °F 66% 30.42 in 10.0 mi Calm Calm - N/A   Overcast
8:53 AM 52.0 °F - 39.0 °F 61% 30.43 in 10.0 mi Calm Calm - N/A   Overcast
9:53 AM 53.1 °F - 42.1 °F 66% 30.42 in 10.0 mi East 9.2 mph - N/A   Overcast
10:53 AM 53.1 °F - 41.0 °F 64% 30.42 in 10.0 mi ENE 8.1 mph - N/A   Overcast
11:53 AM 53.1 °F - 39.9 °F 61% 30.41 in 10.0 mi ENE 8.1 mph - N/A   Mostly Cloudy
12:53 PM 52.0 °F - 39.0 °F 61% 30.40 in 10.0 mi East 9.2 mph - N/A   Overcast
1:53 PM 53.1 °F - 39.9 °F 61% 30.38 in 10.0 mi East 6.9 mph - N/A   Overcast
2:53 PM 57.0 °F - 39.0 °F 51% 30.36 in 10.0 mi East 9.2 mph - N/A   Mostly Cloudy
3:53 PM 55.9 °F - 33.1 °F 42% 30.36 in 10.0 mi ENE 9.2 mph - N/A   Overcast
4:53 PM 57.9 °F - 30.0 °F 35% 30.35 in 10.0 mi ENE 5.8 mph - N/A   Scattered Clouds
5:53 PM 55.9 °F - 32.0 °F 40% 30.34 in 10.0 mi ENE 6.9 mph - N/A   Clear
6:53 PM 54.0 °F - 34.0 °F 47% 30.33 in 10.0 mi East 8.1 mph - N/A   Partly Cloudy
7:53 PM 51.1 °F - 35.1 °F 54% 30.32 in 10.0 mi ENE 6.9 mph - N/A   Overcast
8:53 PM 48.0 °F - 34.0 °F 58% 30.33 in 10.0 mi NNE 3.5 mph - N/A   Overcast
9:53 PM 46.0 °F - 33.1 °F 61% 30.34 in 10.0 mi Calm Calm - N/A   Scattered Clouds
10:53 PM 45.0 °F - 33.1 °F 63% 30.34 in 10.0 mi Calm Calm - N/A   Clear
11:53 PM 39.0 °F - 33.1 °F 79% 30.34 in 10.0 mi Calm Calm - N/A   Clear